Theta_e
294 285 280 284 286 287 286 285 283 286 287 283 282 281 283 285 285 284 284 287 289 291 293 295 295 295 295 295 296 297 298 299 299 299 299 298 297 298 298 298 299 300 301 300
286 281 287 289 287 286 284 283 279 283 286 283 282 279 282 285 283 284 284 284 287 289 291 293 293 292 292 293 294 296 297 298 298 299 299 298 296 296 297 300 301 302 300 301
283 285 290 288 283 285 281 279 277 279 282 283 279 277 281 283 285 285 285 285 286 287 288 290 291 290 290 291 291 294 295 296 297 297 298 298 298 297 296 299 299 300 299 298
283 287 287 284 281 282 281 282 281 281 274 271 279 272 277 279 281 282 282 281 282 283 286 287 288 288 289 290 291 292 293 294 295 296 295 294 294 294 296 297 297 297 298 297
281 282 281 280 281 283 281 282 280 279 274 273 276 270 277 279 278 279 280 281 281 282 284 284 285 286 287 288 288 289 291 292 293 293 293 293 292 294 296 296 296 295 296 296
281 286 282 281 284 284 285 280 279 277 273 268 267 268 272 276 278 278 280 280 281 282 282 283 285 286 286 286 286 287 287 288 290 291 291 290 290 291 292 293 293 295 295 295
281 280 283 284 280 283 280 275 268 268 269 270 262 269 274 278 278 279 278 279 280 280 280 281 282 283 284 284 284 286 286 285 286 287 288 289 289 289 290 290 291 292 293 294
271 273 278 282 279 277 278 275 270 262 267 270 263 267 274 279 280 280 280 280 280 280 280 280 281 282 281 282 283 283 284 284 284 284 285 286 287 287 289 289 290 290 291 292
272 276 280 281 281 279 278 271 276 265 259 264 270 275 278 278 276 278 278 278 278 279 280 280 280 281 281 281 282 282 283 283 284 284 284 283 284 284 284 287 289 289 290 290
277 271 276 281 281 280 279 279 271 269 263 262 268 266 274 272 269 272 275 275 276 278 278 279 280 280 281 282 283 282 283 282 282 283 283 283 283 283 283 285 287 288 288 288
279 272 275 277 271 273 273 272 272 272 273 265 263 270 270 269 268 267 268 275 271 273 277 278 278 280 281 282 281 281 281 281 281 281 282 282 282 282 282 283 284 286 287 287
280 278 268 273 277 278 277 277 276 269 265 269 269 271 272 269 267 266 268 274 275 275 276 276 278 280 280 280 280 280 280 280 280 281 281 281 281 281 281 281 282 284 285 286
280 270 264 272 274 277 273 277 277 271 274 267 265 271 268 267 266 267 268 271 272 274 275 276 277 278 279 279 279 279 279 279 280 280 280 280 280 280 280 280 281 282 284 285
284 278 269 269 271 270 271 275 276 272 262 268 271 273 269 269 265 266 268 268 269 272 273 274 275 276 277 278 277 277 278 279 279 279 279 278 279 279 280 280 280 280 282 284
280 267 273 273 271 270 274 273 271 270 271 268 274 268 268 265 266 267 267 269 271 274 275 275 274 271 271 271 273 274 275 278 278 278 277 277 278 279 280 280 279 280 281 283
280 265 267 266 274 275 271 274 273 271 273 268 273 272 264 264 262 265 269 268 268 270 272 271 268 270 272 271 274 275 275 275 275 276 276 276 277 278 277 278 278 279 279 281
273 266 262 263 268 267 266 268 270 269 266 269 266 268 262 264 266 266 268 268 269 269 267 269 268 269 270 271 274 272 274 273 274 275 275 275 275 275 275 276 277 278 279 280
266 265 262 263 263 261 274 274 274 271 273 266 265 264 266 265 266 270 267 266 265 266 267 268 269 270 269 270 269 271 271 272 273 273 274 274 274 274 275 274 274 276 278 279
277 268 263 263 257 269 274 272 272 271 272 274 271 268 270 271 272 271 273 272 270 271 271 270 272 272 272 273 272 271 274 274 273 273 273 273 273 273 273 273 274 275 277 279
274 271 266 259 260 261 272 273 275 274 267 272 272 271 271 271 266 268 272 274 274 274 275 275 275 276 276 276 277 276 274 273 273 274 274 273 272 272 272 273 274 276 277 279
264 271 267 258 262 267 275 275 275 265 271 272 273 272 271 268 270 272 274 274 275 275 275 276 275 275 276 277 277 275 275 273 275 275 274 273 272 271 272 273 274 275 276 277
268 266 264 262 262 265 275 274 271 273 273 273 272 271 271 271 272 273 273 273 274 273 274 275 274 274 275 276 275 274 273 275 275 274 273 272 271 272 273 272 273 273 274 275
269 273 270 273 273 274 274 273 274 274 272 272 272 272 272 271 271 272 272 272 273 273 273 274 273 273 273 274 274 273 274 274 272 271 270 270 270 271 272 271 271 272 273 273
274 274 271 272 272 272 273 274 274 274 273 274 274 273 272 270 271 271 271 272 272 272 271 272 271 271 271 272 273 273 274 272 270 270 269 270 269 270 270 271 272 271 272 272
275 273 271 269 270 269 272 274 275 274 274 273 273 272 272 272 271 271 271 271 271 271 272 271 271 270 270 271 271 272 272 270 269 268 268 268 269 269 269 270 270 272 273 274
274 275 271 271 273 273 273 274 273 271 270 271 270 269 270 270 271 271 270 271 271 270 271 270 270 269 269 269 270 270 269 268 266 266 267 267 267 267 268 268 269 273 274 276
Wind_Speed
8 13 6 6 6 3 3 2 4 2 5 7 5 5 5 6 11 13 11 9 9 8 6 8 8 8 8 8 10 11 11 11 9 6 4 3 3 3 3 4 7 7 5 5
9 7 6 5 8 7 7 4 5 7 6 5 5 4 4 7 6 8 9 10 9 8 9 9 8 8 8 7 8 10 11 11 9 7 6 3 3 3 4 4 5 6 6 5
8 2 6 4 6 5 3 3 3 5 8 1 2 2 3 5 8 9 10 7 11 9 11 11 12 10 8 9 9 10 10 10 8 8 6 6 5 4 4 6 5 5 6 6
7 7 6 7 6 5 3 4 4 5 6 1 6 5 4 4 7 8 8 9 9 10 11 13 13 14 13 12 11 10 10 9 10 9 7 7 5 8 5 7 4 6 6 6
3 7 7 8 2 2 4 2 2 2 3 4 6 5 3 6 3 5 7 9 9 9 11 12 11 11 10 10 10 10 12 12 12 9 7 7 8 7 7 8 9 7 6 7
3 1 3 2 4 3 4 4 2 3 3 5 4 4 3 4 5 4 6 8 9 10 10 11 11 12 12 10 10 9 13 12 14 13 13 10 11 12 11 11 10 9 6 7
5 2 3 3 3 3 7 6 6 8 6 6 2 2 8 4 6 7 7 7 7 7 8 9 11 12 13 13 12 11 12 13 14 14 14 14 15 14 14 14 11 12 10 8
4 9 3 6 3 1 4 5 7 5 3 6 2 7 5 5 6 8 8 5 7 8 8 8 9 8 8 10 8 10 12 12 13 14 14 13 14 11 12 13 12 10 11 10
3 6 2 4 4 3 4 4 2 6 2 5 4 5 2 3 6 7 6 5 6 6 7 8 8 7 8 8 10 12 15 15 15 15 14 14 14 15 15 19 16 12 12 11
1 5 1 2 2 3 3 1 5 4 4 7 7 6 6 6 3 2 3 4 3 5 6 7 7 8 8 10 9 12 12 13 13 15 14 13 16 16 17 17 18 16 15 11
4 5 5 3 2 6 3 3 3 4 5 6 4 8 5 8 7 4 5 5 6 6 6 7 7 7 8 8 10 10 11 13 14 14 15 15 16 17 18 17 18 17 15 13
1 3 4 8 2 1 2 6 5 6 7 4 2 11 1 6 6 5 5 7 6 6 7 7 8 8 9 9 10 11 11 12 13 14 15 16 16 16 16 17 19 19 17 13
2 2 5 11 4 5 2 5 3 2 3 7 3 10 1 2 1 3 5 8 8 6 8 8 8 8 9 9 9 11 12 13 13 14 15 16 17 17 17 17 18 19 18 13
1 2 8 9 9 3 5 6 5 6 3 4 12 12 5 6 4 6 8 8 8 8 9 7 7 8 8 9 8 10 12 13 13 14 15 16 15 17 16 16 17 18 17 15
5 5 2 5 7 5 9 13 5 10 11 6 17 7 7 6 6 7 6 7 7 8 9 9 9 8 8 7 7 8 10 12 13 14 15 15 16 17 17 15 15 16 15 12
1 3 3 8 6 4 7 13 10 10 12 9 18 21 4 5 4 5 9 6 8 9 9 10 8 9 12 9 11 12 11 10 8 12 14 14 15 16 17 17 17 16 15 14
3 4 3 8 4 7 9 9 6 4 4 8 5 8 2 4 6 5 8 6 8 9 9 10 9 10 11 11 11 10 12 9 9 12 13 13 14 16 17 17 17 16 14 13
5 4 4 5 6 2 9 3 5 8 7 6 0 4 6 6 7 8 5 4 7 8 9 9 8 9 9 8 8 9 8 9 10 12 13 12 15 17 18 17 16 16 15 15
2 4 2 0 3 9 5 4 4 4 7 4 5 1 2 4 5 6 1 2 5 8 8 8 9 11 9 10 8 7 11 11 10 12 12 14 14 17 18 18 18 16 15 14
3 5 5 3 3 7 4 2 2 3 6 3 3 2 4 6 6 5 5 10 12 10 11 15 15 14 15 14 12 14 13 11 13 14 14 14 14 14 17 18 18 16 14 14
3 2 6 3 5 11 5 4 2 5 5 2 1 2 4 3 5 11 13 13 12 13 16 17 15 14 15 14 13 14 13 12 14 16 15 15 15 15 14 15 14 14 14 13
10 10 7 3 2 11 6 3 6 2 2 1 1 2 5 7 10 12 13 14 15 16 17 16 14 15 15 15 13 15 14 12 13 15 16 15 15 13 12 14 13 13 12 12
4 9 7 12 9 2 2 2 3 3 2 1 2 4 5 8 11 12 11 13 13 14 15 14 14 16 16 15 14 17 17 10 13 14 17 15 15 14 13 13 14 12 12 9
5 5 4 2 2 4 5 3 4 3 2 1 2 5 6 9 11 13 12 12 13 12 14 14 15 17 18 16 17 15 16 9 11 16 16 15 14 15 12 10 9 9 10 9
4 3 4 6 2 3 1 4 3 3 2 2 4 4 8 9 13 14 13 13 13 14 15 15 15 16 18 18 19 18 11 11 16 16 16 15 11 12 13 11 10 10 10 11
7 8 6 7 5 3 3 4 3 3 1 4 3 5 6 6 12 13 12 12 13 16 16 16 17 17 19 19 15 16 17 16 16 16 13 12 11 10 11 11 11 17 22 23
Wind_Direction
28 57 35 345 345 324 310 359 354 27 34 15 30 15 30 10 50 45 36 48 48 48 46 47 42 32 23 15 9 2 359 355 356 352 342 339 319 305 296 280 256 245 229 237
36 51 311 321 6 64 26 22 333 295 3 13 23 33 50 39 47 59 51 36 33 31 30 30 36 27 21 7 0 1 359 354 352 354 343 329 318 301 280 279 282 261 247 245
104 281 314 88 27 45 55 91 324 243 333 319 53 321 117 45 60 55 44 37 33 30 27 20 18 14 11 7 358 356 351 349 345 347 344 340 329 331 331 315 297 257 238 231
70 341 26 37 63 33 26 6 327 328 26 238 21 267 226 111 65 49 45 43 40 35 34 29 22 19 14 7 355 351 345 345 346 341 345 346 327 321 309 305 296 284 248 242
283 6 12 41 328 17 243 321 305 43 82 62 336 79 290 134 80 73 49 44 35 38 38 23 15 10 4 1 359 352 351 343 339 333 337 331 321 310 307 307 306 290 274 244
109 263 74 250 277 228 298 27 47 43 91 23 274 98 240 228 164 94 55 45 41 34 23 13 5 5 355 351 354 351 358 349 348 342 337 328 318 311 310 304 302 297 279 259
346 343 328 3 340 16 36 46 348 359 7 224 283 56 240 143 103 124 97 54 43 40 20 8 1 357 350 351 346 351 348 348 350 350 343 333 322 312 300 297 293 292 290 279
79 334 14 356 65 210 358 124 144 230 257 267 8 242 247 132 110 92 80 70 40 25 11 357 347 339 329 335 329 341 346 342 345 343 339 336 332 323 307 295 288 282 281 279
54 286 84 43 358 56 317 40 134 94 51 45 260 309 129 93 43 62 57 53 28 360 351 341 322 314 314 326 334 346 346 343 343 339 335 333 330 324 319 310 294 285 282 278
105 343 347 311 11 17 99 318 23 12 351 310 293 280 242 215 233 348 30 6 334 334 327 325 320 308 319 331 333 342 338 336 330 329 328 326 324 321 318 317 309 292 283 274
136 111 283 51 191 184 1 4 38 134 151 195 276 259 207 193 192 169 266 290 256 276 297 285 287 306 316 322 336 330 330 328 327 327 325 321 318 319 318 315 314 304 289 275
226 131 254 235 195 213 199 202 173 129 270 234 179 268 193 154 179 168 265 285 289 259 268 287 298 306 319 317 322 325 324 320 319 323 321 318 315 312 313 312 311 310 296 280
149 319 356 341 2 357 244 234 169 77 64 209 169 268 357 15 68 289 262 287 285 275 294 293 303 312 301 298 310 323 319 317 318 319 318 317 317 315 310 308 310 309 306 282
23 198 172 199 216 153 254 229 210 142 144 216 235 284 268 247 259 298 287 270 277 268 275 289 293 283 278 301 303 310 311 314 312 315 317 314 313 313 308 305 308 308 305 297
130 206 264 254 232 209 248 250 192 193 230 221 277 241 270 225 235 250 257 284 304 299 295 288 283 276 284 290 298 298 300 309 309 313 313 310 313 315 316 310 305 305 301 291
47 271 83 295 313 264 271 264 226 231 257 256 270 275 157 257 284 306 291 290 290 285 282 283 281 301 308 303 312 309 297 301 294 306 309 313 314 313 316 314 309 303 301 296
131 121 69 262 332 329 314 238 177 198 211 166 213 233 245 293 294 264 281 286 279 284 284 298 295 294 297 297 302 297 303 302 300 309 310 313 315 314 314 312 312 308 301 300
137 119 128 260 357 27 239 163 167 198 238 222 61 225 212 224 254 269 248 233 287 290 293 298 294 299 284 277 294 288 292 297 306 309 311 315 319 318 317 313 310 310 306 302
32 108 316 210 210 296 271 194 181 183 267 170 192 224 268 293 282 287 34 333 275 298 297 286 297 295 293 301 295 292 311 308 309 311 312 318 319 315 315 313 313 311 304 302
53 68 114 56 161 266 245 180 95 109 271 143 94 3 322 341 313 271 319 317 314 307 309 310 312 310 309 313 315 313 311 313 313 316 315 315 314 309 308 311 313 312 310 310
116 197 205 217 245 281 257 152 132 77 306 137 53 314 304 277 253 297 314 313 309 312 314 314 315 310 310 314 314 306 310 309 312 316 312 311 310 306 302 305 311 311 313 313
171 160 204 128 227 281 160 101 171 139 101 105 334 314 303 291 298 304 306 309 314 314 317 316 315 311 311 312 311 308 304 303 315 314 310 308 306 305 305 307 311 312 310 313
272 197 185 184 215 113 150 153 132 113 135 12 313 318 304 301 298 302 303 308 308 310 310 311 310 309 310 312 311 304 303 302 315 315 310 307 304 303 303 308 310 312 315 311
242 174 211 50 226 183 159 133 146 137 124 15 312 301 292 297 305 305 306 309 310 307 309 311 310 310 311 311 310 300 301 306 311 312 307 306 304 303 304 303 300 300 306 309
203 107 184 267 262 34 352 170 144 123 83 334 311 279 293 301 305 306 307 305 307 309 312 313 313 313 315 318 316 311 308 326 320 311 306 303 301 305 304 300 299 297 298 295
187 194 179 238 147 125 130 145 120 90 311 285 287 305 292 278 294 301 298 306 311 315 318 318 317 320 318 314 320 337 325 323 318 311 306 306 304 306 302 300 301 302 303 306